Location: Crescent
(42.8242°N, 73.7329°W)
Time: 16:06:38
(UTC+00:00)

Courier 1B - Pass Details

Date: 23 February 2026
Orbit: 962 x 1208 km, 28.3° (Epoch: 8 March)

Event Time Altitude Azimuth Distance (km) Brightness Sun altitude
Rises 23:31:05 0° 238° (WSW) 3,764 11.8 -10.6°
Reaches altitude 10° 23:34:15 10° 225° (SW) 2,852 10.7 -11.2°
Maximum altitude 23:39:39 24° 174° (S) 2,064 9.2 -12.2°
Enters shadow 23:45:18 10° 124° (ESE) 2,995 9.6 -13.3°
